Time,TemperatureF,DewpointF,PressureIn,WindDirection,WindDirectionDegrees,WindSpeedMPH,WindSpeedGustMPH,Humidity,HourlyPrecipIn,Conditions,Clouds,dailyrainin,SoftwareType,DateUTC
2013-07-18 00:06:00,79.4,72.0,30.01,NNE,28,0.0,-999.0,78,-99.99,,,0.00,weatherlink.com 1.10,2013-07-18 04:06:00,
2013-07-18 00:21:00,79.3,72.0,30.02,West,261,0.0,-999.0,78,-99.99,,,0.00,weatherlink.com 1.10,2013-07-18 04:21:00,
2013-07-18 00:36:00,79.1,72.0,30.02,East,80,0.0,-999.0,79,-99.99,,,0.00,weatherlink.com 1.10,2013-07-18 04:36:00,
2013-07-18 00:51:00,79.2,72.0,30.02,NE,54,0.0,-999.0,79,-99.99,,,0.00,weatherlink.com 1.10,2013-07-18 04:51:00,
2013-07-18 01:06:00,79.0,72.0,30.02,ENE,72,0.0,-999.0,79,-99.99,,,0.00,weatherlink.com 1.10,2013-07-18 05:06:00,
2013-07-18 01:21:00,78.7,72.0,30.01,ENE,73,0.0,-999.0,80,-99.99,,,0.00,weatherlink.com 1.10,2013-07-18 05:21:00,
2013-07-18 01:36:00,78.6,72.0,30.01,SE,134,0.0,-999.0,80,-99.99,,,0.00,weatherlink.com 1.10,2013-07-18 05:36:00,
2013-07-18 01:51:00,78.6,72.0,30.01,ESE,113,0.0,-999.0,81,-99.99,,,0.00,weatherlink.com 1.10,2013-07-18 05:51:00,
2013-07-18 02:06:00,78.4,72.0,30.00,NE,36,0.0,-999.0,81,-99.99,,,0.00,weatherlink.com 1.10,2013-07-18 06:06:00,
2013-07-18 02:21:00,78.4,72.0,30.00,NE,36,0.0,-999.0,81,-99.99,,,0.00,weatherlink.com 1.10,2013-07-18 06:21:00,
2013-07-18 02:36:00,77.8,72.0,29.99,NE,36,0.0,-999.0,83,-99.99,,,0.00,weatherlink.com 1.10,2013-07-18 06:36:00,
2013-07-18 02:51:00,77.8,72.0,30.00,ENE,57,0.0,-999.0,82,-99.99,,,0.00,weatherlink.com 1.10,2013-07-18 06:51:00,
2013-07-18 03:06:00,76.9,72.0,29.99,ENE,57,0.0,-999.0,85,-99.99,,,0.00,weatherlink.com 1.10,2013-07-18 07:06:00,
2013-07-18 03:21:00,75.8,72.0,29.98,ENE,57,0.0,-999.0,87,-99.99,,,0.00,weatherlink.com 1.10,2013-07-18 07:21:00,
2013-07-18 03:36:00,75.4,72.0,29.98,ENE,57,0.0,-999.0,88,-99.99,,,0.00,weatherlink.com 1.10,2013-07-18 07:36:00,
2013-07-18 03:52:00,74.9,72.0,29.98,ENE,57,0.0,-999.0,89,-99.99,,,0.00,weatherlink.com 1.10,2013-07-18 07:52:00,
2013-07-18 04:07:00,74.4,71.0,29.98,ENE,57,0.0,-999.0,90,-99.99,,,0.00,weatherlink.com 1.10,2013-07-18 08:07:00,
2013-07-18 04:22:00,74.0,71.0,29.98,ENE,57,0.0,-999.0,91,-99.99,,,0.00,weatherlink.com 1.10,2013-07-18 08:22:00,
2013-07-18 04:52:00,73.4,71.0,29.99,ENE,57,0.0,-999.0,92,-99.99,,,0.00,weatherlink.com 1.10,2013-07-18 08:52:00,
2013-07-18 05:07:00,73.1,71.0,29.99,ENE,57,0.0,-999.0,92,-99.99,,,0.00,weatherlink.com 1.10,2013-07-18 09:07:00,
2013-07-18 05:22:00,73.0,71.0,30.00,ENE,57,0.0,-999.0,93,-99.99,,,0.00,weatherlink.com 1.10,2013-07-18 09:22:00,
2013-07-18 05:37:00,72.7,71.0,30.00,ENE,57,0.0,-999.0,94,-99.99,,,0.00,weatherlink.com 1.10,2013-07-18 09:37:00,
2013-07-18 05:52:00,72.7,71.0,30.00,ENE,57,0.0,-999.0,94,-99.99,,,0.00,weatherlink.com 1.10,2013-07-18 09:52:00,
2013-07-18 06:07:00,72.6,71.0,30.00,ENE,57,0.0,-999.0,95,-99.99,,,0.00,weatherlink.com 1.10,2013-07-18 10:07:00,
2013-07-18 06:22:00,72.6,71.0,30.00,ENE,57,0.0,-999.0,95,-99.99,,,0.00,weatherlink.com 1.10,2013-07-18 10:22:00,
2013-07-18 06:37:00,72.8,71.0,30.01,ENE,57,0.0,-999.0,95,-99.99,,,0.00,weatherlink.com 1.10,2013-07-18 10:37:00,
2013-07-18 06:52:00,72.9,71.0,30.01,ENE,57,0.0,-999.0,95,-99.99,,,0.00,weatherlink.com 1.10,2013-07-18 10:52:00,
2013-07-18 07:07:00,73.2,72.0,30.02,ENE,57,0.0,-999.0,95,-99.99,,,0.00,weatherlink.com 1.10,2013-07-18 11:07:00,
2013-07-18 07:22:00,73.7,73.0,30.02,ENE,57,0.0,-999.0,96,-99.99,,,0.00,weatherlink.com 1.10,2013-07-18 11:22:00,
2013-07-18 07:37:00,74.3,73.0,30.02,ENE,57,0.0,-999.0,96,-99.99,,,0.00,weatherlink.com 1.10,2013-07-18 11:37:00,
2013-07-18 07:52:00,75.2,74.0,30.02,ENE,57,0.0,-999.0,96,-99.99,,,0.00,weatherlink.com 1.10,2013-07-18 11:52:00,
2013-07-18 08:07:00,76.4,75.0,30.02,ENE,57,0.0,-999.0,95,-99.99,,,0.00,weatherlink.com 1.10,2013-07-18 12:07:00,
2013-07-18 08:22:00,78.9,77.0,30.02,ENE,57,0.0,-999.0,92,-99.99,,,0.00,weatherlink.com 1.10,2013-07-18 12:22:00,
2013-07-18 08:37:00,81.6,77.0,30.02,ENE,57,0.0,-999.0,85,-99.99,,,0.00,weatherlink.com 1.10,2013-07-18 12:37:00,
2013-07-18 08:52:00,83.8,78.0,30.02,ENE,57,0.0,-999.0,82,-99.99,,,0.00,weatherlink.com 1.10,2013-07-18 12:52:00,
2013-07-18 09:07:00,86.1,79.0,30.02,ENE,57,0.0,-999.0,79,-99.99,,,0.00,weatherlink.com 1.10,2013-07-18 13:07:00,
2013-07-18 09:22:00,87.3,79.0,30.02,ENE,61,0.0,-999.0,76,-99.99,,,0.00,weatherlink.com 1.10,2013-07-18 13:22:00,
2013-07-18 09:37:00,88.6,77.0,30.02,East,82,0.0,-999.0,68,-99.99,,,0.00,weatherlink.com 1.10,2013-07-18 13:37:00,
2013-07-18 09:52:00,89.6,79.0,30.02,East,88,0.0,-999.0,70,-99.99,,,0.00,weatherlink.com 1.10,2013-07-18 13:52:00,
2013-07-18 10:07:00,90.2,77.0,30.02,East,85,0.0,-999.0,66,-99.99,,,0.00,weatherlink.com 1.10,2013-07-18 14:07:00,
2013-07-18 10:22:00,90.4,75.0,30.02,East,83,1.0,-999.0,60,-99.99,,,0.00,weatherlink.com 1.10,2013-07-18 14:22:00,
2013-07-18 10:37:00,92.0,76.0,30.02,East,88,0.0,-999.0,60,-99.99,,,0.00,weatherlink.com 1.10,2013-07-18 14:37:00,
2013-07-18 10:52:00,92.2,74.0,30.02,ESE,103,0.0,-999.0,56,-99.99,,,0.00,weatherlink.com 1.10,2013-07-18 14:52:00,
2013-07-18 11:07:00,92.5,76.0,30.02,East,90,0.0,-999.0,58,-99.99,,,0.00,weatherlink.com 1.10,2013-07-18 15:07:00,
2013-07-18 11:22:00,92.0,72.0,30.02,SE,142,0.0,-999.0,53,-99.99,,,0.00,weatherlink.com 1.10,2013-07-18 15:22:00,
2013-07-18 11:37:00,92.1,77.0,30.02,SE,130,2.0,-999.0,62,-99.99,,,0.00,weatherlink.com 1.10,2013-07-18 15:37:00,
2013-07-18 11:53:00,93.9,78.0,30.01,SE,146,0.0,-999.0,60,-99.99,,,0.00,weatherlink.com 1.10,2013-07-18 15:53:00,
2013-07-18 12:08:00,94.0,73.0,30.02,SE,140,1.0,-999.0,51,-99.99,,,0.00,weatherlink.com 1.10,2013-07-18 16:08:00,
2013-07-18 12:23:00,93.5,76.0,30.01,South,171,0.0,-999.0,57,-99.99,,,0.00,weatherlink.com 1.10,2013-07-18 16:23:00,
2013-07-18 12:38:00,94.2,72.0,30.00,SE,124,0.0,-999.0,49,-99.99,,,0.00,weatherlink.com 1.10,2013-07-18 16:38:00,
2013-07-18 12:53:00,94.0,73.0,30.00,South,174,0.0,-999.0,50,-99.99,,,0.00,weatherlink.com 1.10,2013-07-18 16:53:00,
2013-07-18 13:08:00,92.7,71.0,30.00,South,172,0.0,-999.0,50,-99.99,,,0.00,weatherlink.com 1.10,2013-07-18 17:08:00,
2013-07-18 13:23:00,93.1,72.0,30.00,South,178,0.0,-999.0,51,-99.99,,,0.00,weatherlink.com 1.10,2013-07-18 17:23:00,
2013-07-18 13:38:00,93.1,73.0,30.00,ESE,112,0.0,-999.0,53,-99.99,,,0.00,weatherlink.com 1.10,2013-07-18 17:38:00,
2013-07-18 13:53:00,93.4,74.0,29.99,SSE,149,1.0,-999.0,54,-99.99,,,0.00,weatherlink.com 1.10,2013-07-18 17:53:00,
2013-07-18 14:08:00,93.0,71.0,29.99,East,94,1.0,-999.0,49,-99.99,,,0.00,weatherlink.com 1.10,2013-07-18 18:08:00,
2013-07-18 14:23:00,93.3,75.0,29.99,East,97,0.0,-999.0,55,-99.99,,,0.00,weatherlink.com 1.10,2013-07-18 18:23:00,
2013-07-18 14:38:00,94.2,73.0,29.98,ENE,68,1.0,-999.0,51,-99.99,,,0.00,weatherlink.com 1.10,2013-07-18 18:38:00,
2013-07-18 14:53:00,93.9,75.0,29.98,ESE,110,0.0,-999.0,55,-99.99,,,0.00,weatherlink.com 1.10,2013-07-18 18:53:00,
2013-07-18 15:08:00,94.3,71.0,29.97,SE,141,0.0,-999.0,47,-99.99,,,0.00,weatherlink.com 1.10,2013-07-18 19:08:00,
2013-07-18 15:23:00,94.7,71.0,29.96,SE,142,0.0,-999.0,47,-99.99,,,0.00,weatherlink.com 1.10,2013-07-18 19:23:00,
2013-07-18 15:38:00,93.0,77.0,29.96,ENE,76,0.0,-999.0,59,-99.99,,,0.00,weatherlink.com 1.10,2013-07-18 19:38:00,
2013-07-18 15:53:00,90.1,77.0,29.96,ENE,76,0.0,-999.0,66,-99.99,,,0.00,weatherlink.com 1.10,2013-07-18 19:53:00,
2013-07-18 16:08:00,87.1,76.0,29.97,ENE,76,0.0,-999.0,70,-99.99,,,0.01,weatherlink.com 1.10,2013-07-18 20:08:00,
2013-07-18 16:23:00,82.6,77.0,29.96,ENE,76,0.0,-999.0,83,-99.99,,,0.04,weatherlink.com 1.10,2013-07-18 20:23:00,
2013-07-18 16:38:00,80.0,77.0,29.96,ENE,76,0.0,-999.0,90,-99.99,,,0.07,weatherlink.com 1.10,2013-07-18 20:38:00,
2013-07-18 16:53:00,80.7,79.0,29.96,ENE,76,0.0,-999.0,94,-99.99,,,0.07,weatherlink.com 1.10,2013-07-18 20:53:00,
2013-07-18 17:08:00,81.7,78.0,29.96,NE,44,0.0,-999.0,89,-99.99,,,0.07,weatherlink.com 1.10,2013-07-18 21:08:00,
2013-07-18 17:23:00,82.1,79.0,29.95,SW,236,0.0,-999.0,89,-99.99,,,0.07,weatherlink.com 1.10,2013-07-18 21:23:00,
2013-07-18 17:38:00,82.1,79.0,29.95,ESE,122,0.0,-999.0,90,-99.99,,,0.07,weatherlink.com 1.10,2013-07-18 21:38:00,
2013-07-18 17:53:00,82.6,78.0,29.95,South,191,0.0,-999.0,86,-99.99,,,0.07,weatherlink.com 1.10,2013-07-18 21:53:00,
2013-07-18 18:08:00,82.5,76.0,29.95,East,80,0.0,-999.0,81,-99.99,,,0.07,weatherlink.com 1.10,2013-07-18 22:08:00,
2013-07-18 18:23:00,82.2,76.0,29.95,East,97,0.0,-999.0,81,-99.99,,,0.07,weatherlink.com 1.10,2013-07-18 22:23:00,
2013-07-18 18:38:00,82.0,77.0,29.95,ESE,108,0.0,-999.0,84,-99.99,,,0.07,weatherlink.com 1.10,2013-07-18 22:38:00,
2013-07-18 18:53:00,81.6,77.0,29.96,SSE,162,0.0,-999.0,86,-99.99,,,0.07,weatherlink.com 1.10,2013-07-18 22:53:00,
2013-07-18 19:08:00,80.9,78.0,29.97,SSE,162,0.0,-999.0,89,-99.99,,,0.07,weatherlink.com 1.10,2013-07-18 23:08:00,
2013-07-18 19:23:00,80.1,77.0,29.97,SSE,162,0.0,-999.0,90,-99.99,,,0.07,weatherlink.com 1.10,2013-07-18 23:23:00,
2013-07-18 19:38:00,79.3,77.0,29.97,SSE,162,0.0,-999.0,91,-99.99,,,0.07,weatherlink.com 1.10,2013-07-18 23:38:00,
2013-07-18 19:53:00,78.7,76.0,29.98,SSE,162,0.0,-999.0,91,-99.99,,,0.07,weatherlink.com 1.10,2013-07-18 23:53:00,
2013-07-18 20:08:00,77.8,75.0,29.97,SSE,162,0.0,-999.0,90,-99.99,,,0.07,weatherlink.com 1.10,2013-07-19 00:08:00,
2013-07-18 20:23:00,77.1,74.0,29.98,SSE,162,0.0,-999.0,91,-99.99,,,0.07,weatherlink.com 1.10,2013-07-19 00:23:00,
2013-07-18 20:38:00,76.5,74.0,29.98,SSE,162,0.0,-999.0,92,-99.99,,,0.07,weatherlink.com 1.10,2013-07-19 00:38:00,
2013-07-18 20:53:00,75.9,74.0,29.98,SSE,162,0.0,-999.0,92,-99.99,,,0.07,weatherlink.com 1.10,2013-07-19 00:53:00,
2013-07-18 21:08:00,75.4,73.0,29.98,SSE,162,0.0,-999.0,93,-99.99,,,0.07,weatherlink.com 1.10,2013-07-19 01:08:00,
2013-07-18 21:23:00,74.9,73.0,29.98,SSE,162,0.0,-999.0,93,-99.99,,,0.07,weatherlink.com 1.10,2013-07-19 01:23:00,
2013-07-18 21:38:00,74.6,73.0,29.98,SSE,162,0.0,-999.0,94,-99.99,,,0.07,weatherlink.com 1.10,2013-07-19 01:38:00,
2013-07-18 21:53:00,74.3,73.0,29.98,SSE,162,0.0,-999.0,94,-99.99,,,0.07,weatherlink.com 1.10,2013-07-19 01:53:00,
2013-07-18 22:08:00,74.0,73.0,29.99,SSE,162,0.0,-999.0,95,-99.99,,,0.07,weatherlink.com 1.10,2013-07-19 02:08:00,
2013-07-18 22:23:00,73.6,72.0,29.99,SSE,162,0.0,-999.0,95,-99.99,,,0.07,weatherlink.com 1.10,2013-07-19 02:23:00,
2013-07-18 22:38:00,73.5,72.0,30.00,SSE,162,0.0,-999.0,95,-99.99,,,0.07,weatherlink.com 1.10,2013-07-19 02:38:00,
2013-07-18 22:53:00,73.2,72.0,29.99,SSE,162,0.0,-999.0,95,-99.99,,,0.07,weatherlink.com 1.10,2013-07-19 02:53:00,
2013-07-18 23:08:00,72.9,71.0,29.99,SSE,162,0.0,-999.0,95,-99.99,,,0.07,weatherlink.com 1.10,2013-07-19 03:08:00,
2013-07-18 23:23:00,72.6,71.0,29.98,SSE,162,0.0,-999.0,96,-99.99,,,0.07,weatherlink.com 1.10,2013-07-19 03:23:00,
2013-07-18 23:38:00,72.3,71.0,29.98,SSE,162,0.0,-999.0,96,-99.99,,,0.07,weatherlink.com 1.10,2013-07-19 03:38:00,
2013-07-18 23:53:00,71.9,71.0,29.96,SSE,162,0.0,-999.0,96,-99.99,,,0.07,weatherlink.com 1.10,2013-07-19 03:53:00,